www.pogodaiklimat.ru
ПОГОДА в Мильхостове
Время
(UTC), дата
22 5.07
23 5.07
00 6.07
01 6.07
02 6.07
03 6.07
04 6.07
05 6.07
06 6.07
07 6.07
08 6.07
09 6.07
10 6.07
11 6.07
12 6.07
13 6.07
14 6.07
15 6.07
16 6.07
17 6.07
18 6.07
19 6.07
20 6.07
21 6.07
22 6.07
23 6.07
00 7.07
01 7.07
02 7.07
03 7.07
04 7.07
05 7.07
06 7.07
07 7.07
08 7.07
09 7.07
10 7.07
11 7.07
12 7.07
13 7.07
14 7.07
15 7.07
16 7.07
17 7.07
18 7.07
19 7.07
20 7.07
21 7.07
22 7.07
23 7.07
00 8.07
01 8.07
02 8.07
03 8.07
04 8.07
05 8.07
06 8.07
07 8.07
08 8.07
09 8.07
10 8.07
11 8.07
12 8.07
13 8.07
14 8.07
15 8.07
16 8.07
17 8.07
18 8.07
19 8.07
20 8.07
21 8.07
22 8.07
23 8.07
00 9.07
01 9.07
02 9.07
03 9.07
04 9.07
05 9.07
06 9.07
07 9.07
08 9.07
09 9.07
10 9.07
11 9.07
12 9.07
13 9.07
14 9.07
15 9.07
16 9.07
17 9.07
18 9.07
19 9.07
20 9.07
21 9.07
22 9.07
23 9.07
00 10.07
01 10.07
02 10.07
03 10.07
04 10.07
05 10.07
06 10.07
07 10.07
08 10.07
09 10.07
10 10.07
11 10.07
12 10.07
13 10.07
14 10.07
15 10.07
16 10.07
17 10.07
18 10.07
19 10.07
20 10.07
21 10.07
22 10.07
23 10.07
00 11.07
01 11.07
02 11.07
03 11.07
04 11.07
05 11.07
06 11.07
07 11.07
08 11.07
09 11.07
10 11.07
11 11.07
12 11.07
13 11.07
14 11.07
15 11.07
16 11.07
17 11.07
18 11.07
19 11.07
20 11.07
21 11.07
22 11.07
23 11.07
00 12.07
01 12.07
02 12.07
03 12.07
04 12.07
05 12.07
06 12.07
07 12.07
08 12.07
09 12.07
10 12.07
11 12.07
12 12.07
13 12.07
14 12.07
15 12.07
16 12.07
17 12.07
18 12.07
19 12.07
20 12.07
21 12.07
Ветер
(напр.,м/с)
Видим. Явления Облачность Т
(С)
Тd
(С)
f
(%)
Тe
(С)
Тes
(С)
Комфортность P
(гПа)
Po
(гПа)
Тmin
(С)
Tmax
(С)
R
(мм)
R24
(мм)
S
(см)
штиль 0 н/о н/о +18.2 +17.0 93 +19 +19 1012.8 1000.4
н/о н/о +17.7 +16.7 94 1012.9 1000.5
нст 1 н/о н/о +16.5 +16.0 97 +17 +17 1013.0 1000.5
С 1 н/о н/о +16.1 +15.8 98 +17 +17 1012.7 1000.2
н/о н/о +15.9 +15.9 100 1012.5 1000.0
н/о н/о +15.3 +15.3 100 1012.2 999.7
С 2 н/о н/о +17.0 +16.5 97 +17 +17 1012.0 999.5
н/о н/о +19.4 +17.5 89 1011.7 999.4
нст 1 20 км ясно +22.3 +17.9 76 +27 +34 душно 1011.3 999.1 +15.3
30 км 1/1 1200 м
[Cu hum]
+23.1 +18.4 75 1011.0 998.8
30 км 1/1 1200 м
[Cu hum]
+25.0 +19.2 70 1010.7 998.6
нст 2 30 км 1/1 1200 м
[Cu med, cong]
+27.3 +18.9 60 +32 +47 очень
душно
1010.2 998.2
В 3 30 км 3/3 1200 м
[Cu med, cong]
+28.6 +19.8 59 +35 +45 очень
душно
1009.4 997.5
ЮВ 3 30 км 4/4 1200 м
[Cu med, cong]
+29.6 +17.1 47 +33 +42 душно 1008.6 996.7
ЮВ 4 40 км 5/5 1200 м
[Cu med, cong]
+29.5 +18.0 50 +34 +40 очень
душно
1008.1 996.2
ЮВ 4 40 км 5/5 1200 м
[Cu med, cong]
+29.8 +18.0 49 +34 +39 очень
душно
1007.7 995.8
ЮВ 4 40 км 4/4 1200 м
[Cu med, cong]
+30.6 +18.0 47 +35 +39 очень
душно
1006.7 994.9
ЮВ 3 40 км 3/3 1200 м
[Cu med, cong]
+30.3 +18.4 49 +35 +39 очень
душно
1006.1 994.3
ЮВ 4 40 км 3/3 1000 м
[Cb cap]
+29.6 +18.1 50 +34 +36 очень
душно
1005.6 993.8
ЮВ 2 40 км 4/4 1200 м
[Cu Sc Ac lent]
+28.3 +19.0 57 +34 +34 очень
душно
1005.7 993.8
ЮВ 2 30 км 8/8 1110 м
[Sc]
+25.9 +20.0 70 +32 +32 очень
душно
1005.8 993.8 +30.8
С 5 30 км 9/9 900 м
[Sc]
+23.1 +18.0 73 +29 +29 очень
душно
1007.1 995.0
С 11-17
{20}
35 км 9/9 1020 м
[Cu Sc]
+19.6 +15.5 77 +21 +21 комфорт 1008.5 996.2
С 8
{20}
н/о н/о +17.4 +16.2 93 +16 +16 1009.5 997.1
СЗ 7 н/о н/о +17.0 +14.6 86 +16 +16 1010.0 997.6
С 7 н/о н/о +16.5 +14.2 86 +15 +15 1010.8 998.3
СЗ 4
{20}
н/о н/о +15.9 +14.8 93 +15 +15 1011.5 999.0 5
С 3 н/о н/о +15.4 +14.8 96 +15 +15 1011.3 998.8
С 2 н/о н/о +15.4 +14.9 97 +15 +15 1010.7 998.2
СЗ 2 н/о н/о +16.0 +14.9 93 +16 +16 1010.9 998.4
СЗ 4 н/о н/о +16.1 +13.0 82 +15 +15 1011.3 998.8
СЗ 5 н/о н/о +16.2 +11.2 72 +15 +15 1012.5 1000.0
СЗ 8 30 км в посл. час дождь 10/3 800 м
[Cu Sc As op]
+15.0 +10.4 74 +13 +13 1013.2 1000.6 +15.0 9 9.2
С 6 14 км слаб. дождь 10/0
[As op]
+13.6 +11.8 89 +11 +12 1013.7 1001.1
СЗ 5 15 км слаб. дождь 10/3 1410 м
[Sc As op]
+13.7 +12.3 91 +12 +13 1014.8 1002.1
СЗ 6 20 км слаб. дождь 10/4 600 м
[Cu Sc As op]
+14.2 +12.1 87 +12 +13 1015.3 1002.7
СЗ 5 25 км в посл. час дождь 10/6 800 м
[Cu Sc As op]
+14.8 +11.8 82 +13 +14 1015.6 1003.0
СЗ 4 30 км 9/5 900 м
[Cu Sc Ac As]
+15.8 +12.0 78 +15 +18 1015.7 1003.1
С 6 40 км {дождь} 8/4 900 м
[Cu Sc Ac As]
+18.3 +11.2 63 +18 +20 1015.6 1003.1 2
С 6 45 км 8/6 1020 м
[Cu med, cong Ac trans]
+20.4 +10.8 54 +22 +23 комфорт 1015.4 1003.0
С 6 45 км 8/6 1110 м
[Cu Sc Ac trans]
+19.6 +10.3 55 +20 +21 1015.6 1003.2
С 5 45 км 5/4 1200 м
[Cu Sc Ac trans]
+20.7 +9.0 47 +22 +24 комфорт 1015.3 1002.9
С 5 45 км 4/1 1300 м
[Cu hum Ac trans]
+20.4 +9.4 49 +22 +23 комфорт 1015.5 1003.1
С 4 40 км 3/1 1410 м
[Cu hum Ac trans]
+19.5 +9.4 52 +20 +21 1016.0 1003.6
СЗ 4 45 км 3/1 1410 м
[Cu med, cong Ac cuf]
+17.9 +8.8 55 +18 +18 1016.4 1003.9 +20.9 2
С 3 40 км 1/1 1500 м
[Cu hum Ac lent]
+15.4 +9.5 68 +15 +15 1017.0 1004.4
35 км 3/0
[Ac und]
+14.0 +11.0 82 1017.6 1004.9
н/о н/о +13.6 +10.0 79 1017.8 1005.1
штиль 0 н/о н/о +11.3 +9.7 90 +11 +11 1018.3 1005.5
н/о н/о +11.4 +9.1 86 1018.4 1005.6
штиль 0 н/о н/о +10.8 +9.1 89 +10 +10 1018.2 1005.4
н/о н/о +9.6 +8.5 93 1018.4 1005.5
С 2 н/о н/о +9.7 +9.1 96 +8 +8 1018.3 1005.4
СЗ 3 н/о н/о +9.5 +8.7 95 +7 +7 1018.5 1005.6
н/о н/о +11.5 +9.2 86 1018.5 1005.7
н/о н/о +13.0 +10.4 84 1018.4 1005.7
нст 2 35 км {дождь} 6/6 1200 м
[Sc]
+14.2 +10.8 80 +14 +16 1018.8 1006.1 +9.0 0.2 2.1
40 км 4/3 1300 м
[Sc Ac lent]
+17.8 +9.7 59 1018.8 1006.3
40 км 3/1 1110 м
[Cu hum Ac lent Ci fib]
+19.8 +8.5 48 1018.6 1006.2
нст 1 45 км 6/4 1110 м
[Cu med, cong Ac trans Ci fib]
+20.0 +9.0 49 +22 +32 комфорт 1018.3 1005.9
Ю 3 40 км 8/5 1110 м
[Cu med, cong Ac und]
+20.9 +9.5 48 +23 +27 комфорт 1018.2 1005.8
ЮВ 4 40 км 6/4 1200 м
[Cu med, cong Ci]
+21.9 +9.8 46 +23 +30 комфорт 1018.0 1005.6
Ю 5 40 км 8/5 1200 м
[Cu med, cong Ac trans]
+21.7 +10.8 50 +24 +26 комфорт 1017.8 1005.5
Ю 4 45 км 9/9 1110 м
[Cu Sc]
+20.5 +10.9 54 +22 +23 комфорт 1017.6 1005.2
Ю 4 40 км 6/6 1200 м
[Cu Sc]
+22.6 +11.7 50 +25 +28 комфорт 1017.2 1004.9
ЮВ 4 40 км 5/3 1300 м
[Cu med, cong Ac lent]
+22.5 +11.6 50 +25 +27 комфорт 1016.9 1004.6
Ю 4 45 км 4/1 1300 м
[Cu hum Ac trans Ci fib]
+22.2 +11.6 51 +24 +26 комфорт 1016.5 1004.2
Ю 4 30 км 3/1 1300 м
[Cu med, cong Ac trans]
+21.2 +10.4 50 +23 +23 комфорт 1016.6 1004.2
ЮВ 3 40 км 6/3 1500 м
[Sc Ac und]
+18.7 +12.9 69 +20 +20 1016.4 1004.0 +23.0
В 2 30 км 8/0
[Ac und]
+18.0 +12.9 72 +19 +19 1016.8 1004.3
штиль 0 30 км 8/0
[Ac As]
+17.5 +13.4 77 +17 +17 1017.1 1004.6
ЮВ 1 н/о н/о +17.0 +13.5 80 +18 +18 1017.2 1004.7
ЮВ 2 н/о н/о +16.6 +14.2 86 +17 +17 1017.1 1004.6
С 2 н/о н/о +16.2 +14.7 91 +16 +16 1017.4 1004.8
В 1 н/о н/о +16.0 +14.0 88 +17 +17 1017.3 1004.7
В 2 н/о н/о +15.8 +13.6 87 +16 +16 1016.9 1004.3
С 2 н/о н/о +15.5 +14.2 92 +15 +15 1017.3 1004.7
С 2 н/о н/о +15.1 +13.8 92 +15 +15 1017.5 1004.9
С 3 н/о н/о +15.7 +13.5 87 +15 +15 1017.9 1005.3
С 4 н/о н/о +16.1 +13.4 84 +15 +15 1018.1 1005.5
С 6 35 км 6/6 1500 м
[Sc]
+17.6 +13.3 76 +17 +18 1018.4 1005.9 +15.1
С 5 30 км 9/9 800 м
[Cu Sc]
+18.0 +13.3 74 +18 +18 1019.0 1006.5
С 4 30 км 9/9 1020 м
[Cu Sc]
+19.1 +13.1 68 +20 +21 1019.0 1006.5
С 3 30 км 9/9 1020 м
[Cu Sc]
+20.4 +12.9 62 +23 +24 комфорт 1019.1 1006.7
С 2 35 км 8/8 1110 м
[Cu Sc]
+21.5 +13.2 59 +24 +28 комфорт 1019.3 1006.9
СВ 2 35 км 8/8 1110 м
[Cu Sc]
+22.1 +12.9 56 +25 +28 комфорт 1019.2 1006.9
нст 2 40 км 8/8 1200 м
[Cu Sc]
+23.0 +13.2 54 +26 +29 жарко 1019.1 1006.8
40 км 6/5 1200 м
[Cu med, cong Ac trans]
+24.4 +13.3 50 1018.4 1006.2
ЮВ 4 40 км 8/8 1200 м
[Cu Sc]
+24.8 +14.0 51 +27 +28 жарко 1018.1 1005.9
нст 2 40 км 6/5 1300 м
[Cu Sc Ac lent]
+24.4 +13.9 52 +27 +29 жарко 1017.5 1005.3
ЮВ 2 35 км 6/1 1300 м
[Cu hum Ac und]
+23.7 +15.2 59 +27 +28 жарко 1017.3 1005.1
ЮВ 2 35 км 6/3 1300 м
[Cu Sc Ac As]
+23.5 +15.6 61 +27 +27 душно 1017.1 1004.9
ЮВ 2 35 км 6/0
[Ac As Ci fib]
+21.7 +17.1 75 +26 +26 душно 1017.0 1004.7 +25.3
В 2 30 км 4/0
[Ac lent]
+20.1 +16.4 79 +23 +23 комфорт 1017.4 1005.0
30 км 4/0
[Ac trans]
+19.0 +16.6 86 1018.0 1005.6
ЮВ 1 н/о н/о +17.5 +16.0 91 +19 +19 1018.0 1005.5
н/о н/о +17.1 +16.0 93 1018.3 1005.8
ЮВ 1 н/о н/о +17.0 +16.4 96 +18 +18 1018.3 1005.8
штиль 0 н/о н/о +16.4 +15.9 97 +16 +16 1018.4 1005.8
н/о н/о +15.4 +15.1 98 1018.3 1005.7
н/о н/о +15.0 +14.5 97 1018.1 1005.5
штиль 0 н/о н/о +14.6 +14.6 100 +14 +14 1018.2 1005.6
СВ 1 н/о н/о +17.0 +16.2 95 +18 +18 1018.3 1005.8
ЮВ 2 н/о н/о +18.6 +15.8 84 +20 +20 1018.3 1005.8
ЮВ 3 25 км 3/0
[Ac trans]
+20.4 +16.4 78 +24 +28 комфорт 1018.4 1006.0 +14.6
ЮВ 3 30 км 1/0
[Ac trans]
+22.1 +16.8 72 +26 +34 душно 1018.4 1006.1
ЮВ 3 30 км 1/0
[Ac trans]
+24.2 +17.5 66 +28 +38 душно 1018.1 1005.9
ЮВ 3 35 км 1/0
[Ac trans]
+26.6 +17.7 58 +31 +43 душно 1017.6 1005.5
ЮВ 5 35 км 1/1 900 м
[Cu hum Ac trans]
+28.2 +17.4 52 +32 +41 душно 1017.2 1005.1
Ю 6 35 км 3/1 1110 м
[Cu med, cong Ac trans]
+28.7 +16.0 46 +32 +37 душно 1016.7 1004.7
Ю 5 40 км 1/1 1200 м
[Cu hum Ci fib]
+29.5 +17.0 47 +33 +41 душно 1016.1 1004.1
Ю 5 40 км 1/1 1300 м
[Cu med, cong]
+29.9 +16.4 44 +33 +39 душно 1015.7 1003.7
Ю 5 40 км 1/1 1410 м
[Cu hum]
+30.1 +16.5 44 +33 +38 душно 1015.4 1003.4
Ю 6 45 км 1/1 1500 м
[Cu hum]
+29.9 +15.3 41 +32 +35 жарко 1015.0 1003.0
Ю 5 45 км 1/1 1500 м
[Cu hum]
+29.4 +16.3 45 +33 +34 душно 1014.8 1002.8
Ю 4 45 км 1/0
[Ac cuf]
+28.9 +15.8 45 +32 +32 душно 1014.6 1002.6
Ю 3 45 км ясно +26.4 +17.5 58 +31 +31 душно 1014.4 1002.3 +30.4
ЮВ 3 40 км ясно +23.3 +17.5 70 +29 +29 душно 1014.4 1002.2
30 км ясно +22.0 +17.6 76 1014.3 1002.0
н/о н/о +19.7 +17.3 86 1014.8 1002.4
ЮВ 1 н/о н/о +18.6 +17.1 91 +21 +21 комфорт 1015.2 1002.8
С 2 н/о н/о +17.4 +16.4 94 +18 +18 1015.8 1003.3
штиль 0 н/о н/о +17.5 +16.7 95 +17 +17 1015.9 1003.4
З 1 н/о н/о +17.0 +16.7 98 +18 +18 1015.7 1003.2
С 1 н/о н/о +15.9 +15.6 98 +17 +17 1015.6 1003.1
н/о н/о +16.5 +16.3 99 1016.0 1003.5
н/о н/о +17.9 +17.1 95 1016.0 1003.5
штиль 0 н/о н/о +21.2 +17.4 79 +25 +25 комфорт 1016.0 1003.7
нст 1 30 км 3/1 1020 м
[Sc Ac cast]
+21.1 +17.9 82 +25 +30 комфорт 1016.0 1003.7 +15.9
25 км 3/1 900 м
[Cu hum Ac lent]
+24.6 +18.8 70 1015.8 1003.6
ЮВ 2 30 км 3/0
[Ac trans Ci sp]
+26.3 +18.5 62 +31 +43 душно 1015.3 1003.2
ЮВ 2 25 км 3/1 1020 м
[Cu hum Ac trans Ci sp]
+28.5 +18.9 56 +34 +46 очень
душно
1015.0 1003.0
30 км 3/1 1110 м
[Cu med, cong Ac trans]
+30.1 +17.9 48 1014.5 1002.6
В 3 30 км 3/3 1200 м
[Cu med, cong]
+30.7 +16.4 42 +34 +44 очень
душно
1014.2 1002.3
ЮВ 4 30 км 4/4 1200 м
[Cu med, cong]
+31.2 +18.6 47 +36 +43 очень
душно
1013.9 1002.0
ЮВ 4 35 км 5/5 1200 м
[Cu med, cong]
+31.8 +16.6 40 +35 +39 очень
душно
1013.7 1001.8
ЮВ 2 35 км 5/5 1300 м
[Cu med, cong]
+31.6 +17.5 43 +36 +40 очень
душно
1013.3 1001.4
С 14-21
{21}
40 км 6/6 1200 м
[Cu med, cong]
+21.9 +14.1 61 +25 +25 комфорт 1015.1 1002.8
С 13-21
{24}
35 км 6/6 1200 м
[Cu med, cong]
+18.3 +11.4 64 +17 +17 1017.0 1004.5
С 11-17
{20}
30 км 8/3 1200 м
[Cb cap Ac und]
+16.5 +10.8 69 +15 +15 1017.8 1005.2
С 13-19
{24}
40 км 6/3 1200 м
[Cb cap Ac As]
+15.7 +9.6 67 +13 +13 1017.5 1004.9 +32.0
С 10 25 км 8/3 1300 м
[Sc Ac und]
+15.0 +9.8 71 +13 +13 1017.8 1005.2
С 10 35 км 9/3 1300 м
[Sc Ac As]
+14.6 +9.8 73 +12 +12 1018.5 1005.8
СЗ 10 н/о н/о +13.6 +10.8 83 +11 +11 1019.0 1006.3
СЗ 9-15
{20}
н/о н/о +12.9 +11.3 90 +10 +10 1019.6 1006.8
С 11 н/о н/о +13.0 +11.1 88 +9 +9 1018.3 1005.6
С 10-15
{20}
н/о н/о +12.3 +11.2 93 +9 +9 1017.6 1004.9 3
С 9 н/о н/о +12.7 +11.1 90 +9 +9 1017.8 1005.1
С 10 н/о н/о +12.1 +11.2 94 +8 +8 1019.0 1006.2
СЗ 7 н/о н/о +12.3 +10.5 89 +9 +9 1019.6 1006.8
С 8 н/о н/о +11.8 +10.7 93 +8 +8 1019.1 1006.3
СЗ 9 н/о н/о +11.8 +10.5 92 +8 +8 1019.6 1006.8
СЗ 6 20 км слаб. дождь 10/10 800 м
[Sc]
+11.9 +10.6 92 +9 +9 1020.9 1008.1 +11.4 17 16.9
СЗ 7 20 км слаб. дождь 10/10 800 м
[Sc]
+12.3 +10.5 89 +9 +9 1021.3 1008.5
СЗ 7 40 км в посл. час дождь 9/9 1200 м
[Sc]
+14.0 +10.4 79 +12 +12 1021.5 1008.8
С 8 40 км {дождь} 9/4 1200 м
[Sc Ac trans]
+16.5 +10.8 69 +15 +16 1021.7 1009.1
С 7 40 км 9/5 1080 м
[Cu Sc Ac trans]
+17.2 +10.4 64 +16 +17 1021.9 1009.3
С 8 40 км 6/4 1080 м
[Cu Sc Ac trans]
+18.1 +10.0 59 +17 +19 1022.1 1009.5
С 10 40 км {дождь} 8/5 1080 м
[Cu Sc Ac trans Ci fib]
+20.0 +8.4 47 +20 +21 1022.3 1009.8 0.1
С 5 40 км 8/5 1080 м
[Cu Sc Ac trans Ci fib]
+18.9 +10.0 56 +19 +22 1022.6 1010.1
СЗ 4 40 км 6/5 1080 м
[Cu Sc Ac trans]
+18.7 +9.5 55 +19 +22 1022.3 1009.8
С 6 40 км 6/5 1080 м
[Cu Sc Ac trans]
+18.9 +8.0 49 +19 +20 1022.2 1009.7
С 4 40 км 6/6 1080 м
[Cu Sc]
+18.9 +8.6 51 +19 +20 1022.3 1009.8
С 5 40 км 3/3 1080 м
[Sc diur, vesp]
+19.0 +9.5 54 +19 +20 1022.3 1009.8
СЗ 2 40 км 3/3 1080 м
[Sc diur, vesp]
+17.6 +10.2 62 +18 +18 1022.8 1010.2 +20.5 0.1
СЗ 3 40 км 4/4 1080 м
[Sc diur, vesp]
+15.9 +9.8 67 +15 +15 1023.3 1010.6
СЗ 2 20 км 1/1 1080 м
[Sc diur, vesp]
+13.9 +10.1 78 +13 +13 1023.6 1010.8
СЗ 3 н/о н/о +13.1 +9.9 81 +12 +12 1023.6 1010.8
Местоположение метеостанции Мильхостов (Словакия): широта 48.67 долгота 21.73 высота над уровнем моря 106 м.
В архиве по умолчанию представлена погода в Мильхостове за последнюю неделю. Архивные данные за месяц целиком и за предыдущие месяцы, начиная с января 2011 года, Вы можете получить, выбрав интересующий диапазон дат из раскрывающегося списка и нажав кнопку "Найти!".
*Определитесь, кто Вы:
Внимание! Время в таблицах - всемирное. Для получения местного времени необходимо прибавить поправку, которая равна 1 ч.
Смотрите также архив погоды в соседних городах и на ближайших метеорологических станциях:
Партнеры нашего сайта:      
Пояснения к столбцам:
  • Ветер - указаны скорость ветра в м/с - средняя за 10 мин, порывы в срок и между сроками (в фигурных скобках) и направление, откуда дует ветер: С - северный,
  • СВ - северо-восточный, В - восточный, ЮВ - юго-восточный, Ю - южный, ЮЗ - юго-западный, З - западный, СЗ - северо-западный.
  • Видимость - горизонтальная дальность видимости в метрах или километрах. При видимости от 1 до 10 км при отсутствии осадков обычно наблюдается дымка, при ухудшении видимости до 1 км и менее - туман. В сухую погоду видимость может ухудшаться дымом, пылью или мглою.
  • Явления - указаны атмосферные явления, наблюдавшиеся в срок или в последний час перед сроком; фигурными скобками обозначены явления, наблюдавшиеся между сроками (за 1-3 часа до срока); квадратными скобками обозначены град или гололедные отложения с указанием их диаметра в мм.
  • Облачность - указаны через наклонную черту общая и нижняя облачность в баллах и высота нижней границы облаков в метрах; квадратными скобками обозначены формы облаков: Ci - перистые, Cs - перисто-слоистые, Cc - перисто-кучевые, Ac - высококучевые, As - высокослоистые, Sc - слоисто-кучевые, Ns - слоисто-дождевые, Cu - кучевые, Cb - кучево-дождевые. Подробнее классификацию облаков см. в Атласе облаков (PDF).
  • T - Температура воздуха - температура, измеренная на высоте 2 м над землей.
  • Td - Температура точки росы - температура, при понижении до которой содержащийся в воздухе водяной пар достигнет насыщения.
  • f - Относительная влажность воздуха - влажноcть воздуха, измеренная на высоте 2 м над землей.
  • Te - Эффективная температура - температура, которую ощущает одетый по сезону человек в тени. Характеристика душности погоды. При расчете учитывается влияние влажности воздуха и скорости ветра на теплоощущения человека.
  • Tes - Эффективная температура на солнце - температура, которую ощущает человек, с поправкой на солнечный нагрев. Характеристика знойности погоды. Зависит от высоты солнца над горизонтом, облачности и скорости ветра. Ночью, в пасмурную погоду, а также при ветре 12 м/с и более поправка равна нулю.
  • P - Атмосферное давление - приведенное к уровню моря атмосферное давление.
  • Po - Атмосферное давление - измеренное на уровне метеостанции атмосферное давление.
  • Tmin - Минимальная температура - минимум температуры воздуха на высоте 2 м над землей.
  • Tmax - Максимальная температура - максимум температуры воздуха на высоте 2 м над землей.
  • R - Количество осадков - Количество выпавших осадков за период времени, мм. При наведении курсора мыши на число - период времени, за который выпало указанное количество осадков.
  • R24 - Количество осадков - Количество выпавших осадков за 24 часа, мм.
  • S - Снежный покров - Высота снежного покрова, см. При наведении курсора мыши на число - состояние снежного покрова и степень покрытия местности в баллах.